Regional Weather Roundup
Issued by NWS

Home | Current Version | Previous Version | Text Only | Print | Product List | Glossary On
Versions: 1 2 3 4 5 6 7 8 9 10 11 12 13 14 15 16 17 18 19 20 21 22 23 24 25 26 27 28 29 30 31 32 33 34 35 36 37 38 39 40 41 42 43 44 45 46 47 48
000
ASUS45 KPSR 271410
RWRAZ

ARIZONA HOURLY REGIONAL WEATHER ROUNDUP
NATIONAL WEATHER SERVICE PHOENIX AZ
700 AM MST SAT MAY 27 2017

NOTE: FAIR INDICATES FEW OR NO CLOUDS BELOW 12,000 FEET WITH NO
SIGNIFICANT WEATHER AND/OR OBSTRUCTIONS TO VISIBILITY.

AZZ001>003-036-271500-
NORTHWEST ARIZONA

CITY           SKY/WX    TMP DP  RH WIND       PRES   REMARKS
BULLHEAD CITY  SUNNY     75  36  23 CALM      29.88R
KINGMAN        SUNNY     66  34  30 SE7       30.01R
$$

AZZ004>008-015-016-018-271500-
NORTH CENTRAL ARIZONA

CITY           SKY/WX    TMP DP  RH WIND       PRES   REMARKS
GRAND CANYON   SUNNY     48  29  47 CALM      30.18R
WILLIAMS       SUNNY     57  30  35 VRB5      30.17R
PRESCOTT       SUNNY     56  36  47 S5        30.10R
FLAGSTAFF      SUNNY     51  27  39 CALM      30.19R
PAYSON         SUNNY     57  28  33 CALM      30.15R
PAGE           SUNNY     64  35  34 W5        30.06R
$$

AZZ009>014-017-271500-
NORTHEAST ARIZONA

CITY           SKY/WX    TMP DP  RH WIND       PRES   REMARKS
WINSLOW        SUNNY     54  21  27 E7        30.11R
SAINT JOHNS    SUNNY     53  22  29 S3        30.14R
WINDOW ROCK    SUNNY     56  23  27 CALM      30.16R
SHOW LOW       SUNNY     55  23  28 S14       30.17R
$$

AZZ540-542>544-546-548-271500-
GREATER PHOENIX AREA

CITY           SKY/WX    TMP DP  RH WIND       PRES   REMARKS
PHOENIX        MOSUNNY   73  27  18 E6        29.92R
BUCKEYE        SUNNY     72  30  21 N5        29.93R
GLENDALE       SUNNY     73  30  20 CALM        N/A
LUKE AFB       SUNNY     72  34  25 CALM      29.92R
DEER VALLEY    SUNNY     72  26  18 E3        29.94R
SCOTTSDALE     SUNNY     73  25  16 CALM      29.96R
MESA-FALCON    SUNNY     73  27  17 NE3       29.95R
MESA-GATEWAY   SUNNY     66  27  22 SE7       29.95R
CHANDLER       SUNNY     70  34  26 E5        29.94R
$$

AZZ539-553-271500-
SOUTHWEST MARICOPA COUNTY AND PINAL COUNTY

CITY           SKY/WX    TMP DP  RH WIND       PRES   REMARKS
CASA GRANDE    SUNNY     69  25  19 E3        29.96R
GILA BEND      FAIR      72  19  13 E3        29.91R
$$

AZZ503-504-507>509-271500-
SOUTHEAST ARIZONA

CITY           SKY/WX    TMP DP  RH WIND       PRES   REMARKS
TUCSON         SUNNY     68  29  23 SE7       30.02R
DAVIS-MONTHAN  SUNNY     69  30  23 SE5       30.01R
RYAN FIELD     SUNNY     64  27  24 CALM      30.01R
NOGALES        SUNNY     64  28  25 CALM      30.07R
SIERRA VISTA   SUNNY     67  24  20 CALM      30.12R
DOUGLAS        SUNNY     67  30  25 CALM      30.09R
SAFFORD        SUNNY     66  21  18 SE5       30.02R
$$

AZZ532-271500-
SOUTHWEST ARIZONA

CITY           SKY/WX    TMP DP  RH WIND       PRES   REMARKS
YUMA           SUNNY     71  49  45 NE3       29.89R
$$

CAZ041-043-047-048-061-525>527-560>570-271500-
SOUTHERN CALIFORNIA

CITY           SKY/WX    TMP DP  RH WIND       PRES   REMARKS
DOWNTOWN L.A.  CLOUDY    61  52  72 CALM      30.03R
L.A. AIRPORT   PTSUNNY   60  53  77 W10       30.03R
SAN DIEGO      PTSUNNY   63  56  78 N5        30.04R
BURBANK        CLOUDY    56  47  71 CALM      30.03R
ONTARIO        PTSUNNY   58  50  75 W5        30.03R
RIVERSIDE      CLOUDY    56  51  84 W5        30.03R
PALM SPRINGS   SUNNY     68  51  54 VRB6      29.90R
EL CENTRO NAS  SUNNY     63  45  51 CALM      29.89R
IMPERIAL       SUNNY     69  45  41 N6        29.87R
BLYTHE         SUNNY     71  46  40 CALM      29.88R
NEEDLES        SUNNY     79  41  25 SW6       29.89R
$$

NVZ020-UTZ003-271500-
SOUTHERN NEVADA-UTAH

CITY           SKY/WX    TMP DP  RH WIND       PRES   REMARKS
LAS VEGAS      SUNNY     74  28  18 CALM      29.95R
SALT LAKE CITY MOSUNNY   52  40  63 W3        30.19R
$$

NMZ009-TXZ055-271500-
NEW MEXICO-WEST TEXAS

CITY           SKY/WX    TMP DP  RH WIND       PRES   REMARKS
ALBUQUERQUE    MOSUNNY   61  15  16 S7        30.10R
EL PASO        MOSUNNY   76  32  20 VRB3      30.05R
$$


........................KEY........................
SKY/WX - SKY CONDITION/WEATHER
TMP    - TEMPERATURE IN FAHRENHEIT
DP     - DEW POINT IN FAHRENHEIT
RH     - RELATIVE HUMIDITY IN PERCENT
WIND   - DIRECTION AND SPEED IN MILES PER HOUR (MPH)
VRB    - VARIABLE WIND DIRECTION
PRES   - MEAN SEA LEVEL PRESSURE IN INCHES OF MERCURY
         F - FALLING PRESSURE   R - RISING PRESSURE
         S - STEADY PRESSURE
VSB    - VISIBILITY IN MILES
HX     - HEAT INDEX IN FAHRENHEIT
WCI    - WIND CHILL INDEX IN FAHRENHEIT
TC     - TEMPERATURE IN CELSIUS WHICH IS ALSO KNOWN AS
         TEMPERATURE IN CENTIGRADE
AFB    - AIR FORCE BASE
         LUKE AFB IS LUKE AIR FORCE BASE
         DAVIS-MONTHAN IS DAVIS-MONTHAN AIR FORCE BASE
NAS    - NAVAL AIR STATION
         EL CENTRO NAS IS EL CENTRO NAVAL AIR STATION
N/A    - NOT AVAILABLE





USA.gov is the U.S. government's official web portal to all federal, state and local government web resources and services.